Back to catalog

SL-8 DEB

AliveLEO
NORAD 21936·DEBRIS·🇷🇺 Russia

Launched Feb 12, 1991 from Plesetsk Cosmodrome

Loading…

Next Passes (next 24 hours)

TLE

FreshSource: Space-Track

Epoch: Sep 14, 2026, 10:26 UTC

1 21936U 91009CD  26257.43497756 -.00000012  00000-0  46575-5 0  9993
2 21936  74.0641 314.0271 0261650  74.3866 302.0451 12.01231349519474

Track SL-8 DEB in real time with AllMySat

Download on the App Store